Flag for Germany Weather past 2 weeks in Friedrichshafen, Baden-Württemberg, Germany

34 °F

Light rain. Mostly cloudy.

Feels Like: 26 °F
Forecast: 31 / 38 °F
Wind: 10 mph from Southwest

Location: Friedrichshafen Airport

Current Time: Nov 25, 2015 at 7:23:31 AM

Latest Report: Nov 25, 2015 at 6:20 AM

Visibility: N/A

Pressure: 29.86 "Hg

Humidity: 87%

Dew point: 30 °F

Location of FriedrichshafenLocation

Historic Weather in Friedrichshafen — Graph


Friedrichshafen temperature yesterday

Maximum temperature yesterday: 37 °F (at 1:20 PM)
Minimum temperature yesterday: 23 °F (at 5:20 AM)
Average temperature yesterday: 30 °F

Past Weeks' High & Low Weather Summary

High63 °F (Nov 10, 2:20 PM)94% (Nov 10, 6:20 AM)30.48 "Hg (Nov 10, 6:20 AM)
Low23 °F (Nov 24, 5:20 AM)36% (Nov 15, 12:50 PM)29.42 "Hg (Nov 21, 1:50 PM)
Average45 °F75%30.13 "Hg
* Reported Nov 10 5:20 AM — Nov 25 5:20 AM, Friedrichshafen, Weather by CustomWeather, © 2015

Note: Actual official high and low records may vary slightly from our data, if they occured in-between our weather recording intervals... More about our weather records


Friedrichshafen weather history for previous 24 hours

Time TempWeatherWind HumidityBarometerVisibility
5:20 AM
Wed, Nov 25
34 °FLight snow. Mostly cloudy.6 mph81%29.89 "Hg2 mi
4:50 AM34 °FLight snow. Mostly cloudy.8 mph87%29.89 "Hg6 mi
4:20 AM34 °FLight snow. Overcast.10 mph81%29.89 "Hg4 mi
3:50 AM36 °FLight rain. Overcast.13 mph75%29.89 "HgN/A
3:20 AM36 °FLight rain. Overcast.15 mph75%29.92 "HgN/A
2:50 AM36 °FLight rain. Mostly cloudy.9 mph70%29.92 "HgN/A
2:20 AM37 °FMostly cloudy.6 mph60%29.92 "HgN/A
1:50 AM36 °FMostly cloudy.2 mph65%29.92 "HgN/A
12:50 AM34 °FOvercast.2 mph75%29.95 "HgN/A
12:20 AM34 °FOvercast.No wind75%29.95 "HgN/A
11:50 PM
Tue, Nov 24
32 °FMostly cloudy.1 mph75%29.98 "HgN/A
10:50 PM32 °FMostly cloudy.No wind75%30.01 "HgN/A
10:20 PM32 °FOvercast.2 mph75%30.04 "HgN/A
9:50 PM30 °FMostly cloudy.3 mph80%30.04 "HgN/A
9:20 PM32 °FClear.No wind75%30.04 "Hg10 mi
8:50 PM30 °FClear.2 mph80%30.07 "Hg10 mi
8:20 PM30 °FClear.1 mph80%30.07 "Hg10 mi
7:50 PM30 °FClear.2 mph80%30.07 "Hg10 mi
7:20 PM30 °FClear.2 mph75%30.09 "Hg10 mi
6:50 PM30 °FClear.No wind80%30.09 "Hg10 mi
6:20 PM30 °FClear.1 mph75%30.09 "Hg10 mi
5:50 PM30 °FClear.2 mph75%30.09 "Hg10 mi
5:20 PM32 °FClear.1 mph69%30.09 "Hg10 mi
4:50 PM32 °FClear.5 mph69%30.12 "Hg10 mi
4:20 PM34 °FSunny.3 mph65%30.12 "Hg10 mi
3:50 PM36 °FSunny.5 mph60%30.12 "Hg10 mi
3:20 PM36 °FSunny.6 mph60%30.15 "Hg10 mi
2:50 PM37 °FPassing clouds.5 mph56%30.15 "HgN/A
2:20 PM36 °FSunny.7 mph60%30.15 "Hg10 mi
1:50 PM36 °FPassing clouds.6 mph65%30.18 "HgN/A
1:20 PM37 °FScattered clouds.1 mph60%30.18 "HgN/A
12:50 PM36 °FPartly sunny.2 mph70%30.21 "HgN/A
12:20 PM32 °FPartly sunny.2 mph75%30.21 "HgN/A
11:50 AM30 °FPartly sunny.6 mph75%30.21 "HgN/A
11:20 AM30 °FOvercast.3 mph75%30.24 "HgN/A
10:50 AM28 °FOvercast.2 mph80%30.24 "HgN/A
10:20 AM28 °FMore clouds than sun.3 mph80%30.24 "HgN/A
9:50 AM27 °FOvercast.3 mph80%30.24 "HgN/A
9:20 AM27 °FMostly cloudy.3 mph80%30.27 "HgN/A
8:50 AM27 °FMore clouds than sun.5 mph80%30.27 "HgN/A
7:50 AM25 °FOvercast.6 mph80%30.27 "HgN/A
Weather by CustomWeather, © 2015

See weather overviewHow to use our weather pages